Date,TemperatureHighF,TemperatureAvgF,TemperatureLowF,DewpointHighF,DewpointAvgF,DewpointLowF,HumidityHigh,HumidityAvg,HumidityLow,PressureMaxIn,PressureMinIn,WindSpeedMaxMPH,WindSpeedAvgMPH,GustSpeedMaxMPH,PrecipitationSumIn
2013-1-1,41,38,34,31,30,26,79,71,64,30.02,29.89,10,1,11,0.01
2013-1-2,35,30,25,26,19,14,76,64,47,30.23,29.98,15,3,16,0.00
2013-1-3,37,28,17,23,19,13,88,67,52,30.24,30.11,9,1,9,0.00
2013-1-4,41,34,30,26,23,22,76,63,54,30.19,30.08,17,2,17,0.00
2013-1-5,42,36,31,27,24,21,72,63,52,30.36,30.13,15,2,17,0.00
2013-1-6,47,39,29,32,29,24,87,68,53,30.16,30.00,9,1,10,0.00
2013-1-7,42,38,28,34,28,23,83,67,57,30.42,30.13,15,2,17,0.00
2013-1-8,51,36,25,36,29,22,90,75,53,30.39,30.32,8,0,8,0.00
2013-1-9,48,35,26,40,31,24,96,86,56,30.38,30.20,9,0,11,0.00
2013-1-10,51,44,37,34,31,27,72,61,49,30.59,30.38,12,1,12,0.00
2013-1-11,45,42,39,41,36,30,97,80,63,30.45,30.07,11,1,11,0.08
2013-1-12,58,46,39,51,44,38,99,92,76,30.15,30.06,4,0,4,0.00
2013-1-13,59,51,43,54,49,41,98,94,82,30.07,29.90,7,0,9,0.00
2013-1-14,53,48,38,51,42,32,99,82,57,30.30,29.90,17,3,18,0.24
2013-1-15,40,38,34,37,35,32,96,91,81,30.33,30.14,8,0,8,0.48
2013-1-16,38,35,33,37,34,32,98,97,95,30.14,29.83,12,0,13,0.63
2013-1-17,42,38,35,38,31,28,98,76,57,30.12,29.96,13,2,14,0.00
2013-1-18,37,32,28,30,19,13,80,59,42,30.48,30.04,26,4,26,0.00
2013-1-19,58,42,29,34,28,21,80,60,32,30.35,29.89,17,3,18,0.00
2013-1-20,51,39,32,34,22,14,71,51,26,30.07,29.79,21,3,22,0.00
2013-1-21,41,31,25,24,18,10,73,59,44,30.08,29.79,24,4,27,0.00
2013-1-22,24,17,13,10,1,-3,61,49,39,30.28,29.96,23,6,24,0.00
2013-1-23,25,17,11,11,3,0,70,53,38,30.34,30.12,15,2,16,0.00
2013-1-24,26,20,15,14,9,1,89,65,43,30.51,30.08,22,4,22,0.00
2013-1-25,22,18,15,16,9,2,88,69,51,30.51,30.05,12,1,13,0.00
2013-1-26,32,24,18,25,20,15,92,86,71,30.43,30.07,5,0,6,0.03
2013-1-27,34,28,19,24,19,14,83,68,58,30.58,30.43,10,1,10,0.01
2013-1-28,41,35,31,40,32,23,96,89,72,30.44,30.01,9,1,11,0.14
2013-1-29,68,56,41,57,50,40,96,81,66,30.08,29.90,15,2,15,0.00
2013-1-30,69,59,55,62,56,51,98,89,76,29.91,29.17,30,4,30,1.69
2013-1-31,55,39,28,55,27,12,99,64,49,29.87,29.14,28,5,28,0.35